[[{"header":{"parameterUnit":"m.s-1","parameterCategory":2,"la1":30.2991,"la2":30.254,"lo1":-89.0895,"lo2":-89.0444,"dy":0.0017,"dx":0.0017,"nx":28,"ny":28,"refTime":"2024-02-16T03:00:00:Z","depth":"0","parameterNumber":2,"parameterNumberName":"U-component_of_CURRENTS"},"data":[0,0,0,0,0,0,0,0,0,0,0,0,0,0,0,0,0,0,0,0,0,0,0,0,0,0,0,0,0,0,0,0,0,0,0,0,0,0,0,0,0,0,0,0,0,0,0,0,0,0,0,0,0,0,0,0,0,0,0.1539,0.154,0,0.161,0.161,0.1611,0.164,0.164,0.164,0.164,0.1706,0.1707,0.1709,0,0,0,0,0,0,0,0,0,0,0,0,0,0.1473,0.1474,0.1539,0.154,0.1541,0.161,0.161,0.1611,0.164,0.164,0.164,0.164,0.1705,0.1707,0.1709,0,0,0,0,0,0,0,0,0,0,0,0,0,0.1517,0.1474,0.1539,0.1564,0.1567,0.1609,0.1611,0.1612,0.164,0.164,0.164,0.164,0.1704,0.1707,0.171,0.1728,0,0,0.1718,0.1719,0,0,0,0,0,0,0,0,0.1515,0.1519,0.1559,0.1563,0.1566,0.1617,0.1612,0.1651,0.164,0.1611,0.164,0.164,0.1676,0.1681,0.1693,0.1731,0.1734,0.1718,0.172,0.1721,0.1722,0,0,0,0,0,0,0,0.1511,0.1517,0.1566,0.1561,0.1565,0.1588,0.1593,0.1619,0.1642,0.1614,0.1616,0.1626,0.1678,0.1691,0.1695,0.1735,0.1718,0.1721,0.1722,0.1723,0.1831,0.1832,0,0,0,0,0,0,0.1503,0.1514,0.1563,0.1568,0.1541,0.1589,0.1595,0.16,0.1642,0.1649,0.1626,0.1627,0.1686,0.1692,0.1697,0.1741,0.1721,0.1724,0.1725,0.183,0.1831,0.1832,0,0,0,0,0,0,0.1501,0.1506,0.1561,0.1544,0.1552,0.159,0.1595,0.1601,0.1617,0.1652,0.1658,0.1635,0.1686,0.1694,0.1732,0.1743,0.1725,0.1727,0.1828,0.183,0.1832,0.1815,0,0,0,0,0,0,0.1499,0.1505,0.1505,0.1543,0.1553,0.1589,0.1595,0.1603,0.1623,0.1625,0.1662,0.1668,0.1687,0.1728,0.1735,0.1746,0.1729,0.1827,0.1829,0.1831,0.1814,0.1816,0.1817,0,0,0,0,0,0.1496,0.1498,0.1504,0.151,0.1551,0.159,0.1597,0.1623,0.1624,0.1635,0.1663,0.1667,0.1747,0.1731,0.1739,0.1751,0.1825,0.1828,0.1831,0.1813,0.1815,0.1817,0,0,0,0,0,0,0.147,0.1503,0.151,0.1521,0.1554,0.1595,0.1607,0.1623,0.1653,0.1654,0.1681,0.169,0.1727,0.1747,0.1728,0.1792,0.1788,0.1792,0.1772,0.1774,0.1776,0.1778,0.1732,0,0,0,0,0,0.1464,0.1473,0.151,0.152,0.1534,0.1569,0.1586,0.1606,0.1638,0.1651,0.1677,0.171,0.1746,0.1764,0.1796,0.1829,0.191,0.1845,0.1846,0.1848,0.1857,0.202,0.2038,0.1842,0.1842,0.1841,0,0,0.1455,0.1476,0.148,0.1515,0.1539,0.1568,0.1579,0.1607,0.1631,0.1654,0.1688,0.1715,0.1757,0.1795,0.1814,0.1812,0.1945,0.1851,0.1852,0.1861,0.2025,0.2044,0.2062,0.1843,0.1843,0.1843,0,0,0.1456,0.1462,0.1476,0.1503,0.1543,0.1566,0.1573,0.1615,0.1631,0.167,0.1693,0.1726,0.1778,0.1809,0.1832,0.1865,0.1949,0.1878,0.189,0.2047,0.2065,0.2082,0.2203,0.2231,0.188,0.188,0.188,0,0.1447,0.147,0.1488,0.1515,0.1538,0.1564,0.1591,0.1614,0.1663,0.1691,0.1679,0.1777,0.1785,0.1856,0.1855,0.1866,0.1976,0.1872,0.2052,0.207,0.2088,0.2208,0.2239,0.188,0.188,0.188,0.188,0,0.1467,0.1486,0.1497,0.1537,0.1562,0.1588,0.1624,0.1649,0.1666,0.1704,0.177,0.1793,0.1866,0.1857,0.1858,0.1978,0.2021,0.2035,0.2045,0.2107,0.2229,0.2262,0.1879,0.1879,0.1879,0.188,0,0,0.1454,0.15,0.1506,0.1534,0.1575,0.1606,0.1637,0.1694,0.1746,0.1773,0.1862,0.1869,0.1906,0.1934,0.1949,0.2042,0.2221,0.2088,0.2097,0.2207,0.2585,0.2535,0.2566,0.2298,0.2304,0.2309,0.2617,0,0.1469,0.1515,0.1533,0.1585,0.1616,0.1645,0.1683,0.1737,0.1784,0.1877,0.1911,0.2,0.1934,0.1989,0.2069,0.2207,0.231,0.2136,0.251,0.252,0.2469,0.2603,0.2553,0.2819,0.265,0.2655,0.2659,0,0.15,0.1523,0.1568,0.1629,0.1645,0.1678,0.1762,0.1802,0.1916,0.1968,0.2054,0.2116,0.2238,0.2186,0.2445,0.2359,0.2468,0.2548,0.2563,0.2548,0.2533,0.2733,0.2885,0.2804,0.271,0.2706,0.2702,0,0.1513,0.156,0.1596,0.1614,0.1678,0.1708,0.1744,0.1835,0.191,0.2058,0.2159,0.2295,0.2411,0.2571,0.2682,0.2629,0.2983,0.2944,0.2993,0.299,0.3031,0.3021,0.3146,0.3148,0.3147,0.3146,0.3146,0,0.1549,0.1588,0.1607,0.1634,0.171,0.1728,0.1832,0.1893,0.2017,0.214,0.2223,0.2356,0.2527,0.2716,0.2802,0.3006,0.3101,0.3035,0.3089,0.3018,0.3004,0.2998,0.2957,0.3158,0.3155,0.3153,0.3151,0,0.163,0.161,0.1683,0.172,0.1731,0.1806,0.1905,0.1982,0.208,0.2257,0.2327,0.2505,0.2736,0.2875,0.3153,0.3172,0.3293,0.339,0.3262,0.3291,0.3212,0.3171,0.3248,0.3166,0.3535,0.3536,0.3537,0,0.1715,0.1738,0.1776,0.1797,0.1827,0.1905,0.1954,0.2035,0.212,0.2332,0.243,0.2676,0.2806,0.3161,0.3302,0.3503,0.3363,0.3538,0.3386,0.3236,0.3234,0.3045,0.2955,0.3451,0.3451,0.3451,0.3451,0,0.1868,0.1854,0.1876,0.192,0.1959,0.2023,0.2086,0.216,0.2258,0.237,0.2512,0.2622,0.295,0.3126,0.3373,0.3473,0.3383,0.354,0.347,0.3252,0.2982,0.2917,0.3182,0.3451,0.3451,0.3451,0.3451,0.3451,0.1978,0.2021,0.1986,0.2043,0.2064,0.2079,0.2105,0.2156,0.2238,0.2341,0.2493,0.2606,0.2954,0.3281,0.3356,0.3473,0.3387,0.3424,0.3418,0.3259,0.3073,0.3292,0.3543,0.3543,0.3544,0.3544,0.3544,0,0.2062,0.2044,0.2098,0.2086,0.2087,0.2096,0.2133,0.2115,0.213,0.2266,0.2336,0.2644,0.2898,0.3154,0.3444,0.3386,0.3209,0.331,0.3065,0.3005,0.3329,0.321,0.3295,0.3295,0.3295,0.3295,0.3295,0.3295,0.2076,0.2081,0.2083,0.2062,0.2055,0.2008,0.1996,0.1966,0.201,0.2074,0.2193,0.235,0.2752,0.3215,0.335,0.3302,0.3059,0.2954,0.2888,0.3146,0.3154,0.3161,0.3038,0.3085,0.3085,0.2445,0.2441,0.2438]},{"header":{"parameterUnit":"m.s-1","parameterCategory":2,"la1":30.2991,"la2":30.254,"lo1":-89.0895,"lo2":-89.0444,"dy":0.0017,"dx":0.0017,"nx":28,"ny":28,"refTime":"2024-02-16T03:00:00:Z","depth":"0","parameterNumber":3,"parameterNumberName":"V-component_of_CURRENTS"},"data":[0,0,0,0,0,0,0,0,0,0,0,0,0,0,0,0,0,0,0,0,0,0,0,0,0,0,0,0,0,0,0,0,0,0,0,0,0,0,0,0,0,0,0,0,0,0,0,0,0,0,0,0,0,0,0,0,0,0,-0.012,-0.012,0,-0.0118,-0.0118,-0.0117,-0.0137,-0.0138,-0.0139,-0.014,-0.0137,-0.0136,-0.0135,0,0,0,0,0,0,0,0,0,0,0,0,0,-0.0098,-0.0098,-0.012,-0.012,-0.012,-0.0118,-0.0118,-0.0117,-0.0137,-0.0138,-0.0139,-0.014,-0.0137,-0.0136,-0.0135,0,0,0,0,0,0,0,0,0,0,0,0,0,-0.01,-0.0099,-0.0119,-0.0132,-0.0133,-0.0118,-0.0118,-0.0117,-0.0137,-0.0138,-0.0139,-0.014,-0.0137,-0.0136,-0.0135,-0.0102,0,0,-0.0131,-0.013,0,0,0,0,0,0,0,0,-0.01,-0.01,-0.013,-0.0131,-0.0133,-0.0132,-0.0109,-0.0113,-0.0136,-0.0132,-0.014,-0.0141,-0.0136,-0.0135,-0.0127,-0.0102,-0.0101,-0.0131,-0.013,-0.0129,-0.0129,0,0,0,0,0,0,0,-0.01,-0.01,-0.0116,-0.013,-0.0132,-0.0124,-0.0125,-0.011,-0.0124,-0.0132,-0.0135,-0.0139,-0.0137,-0.0128,-0.0127,-0.0101,-0.0131,-0.013,-0.0129,-0.0128,-0.0107,-0.0107,0,0,0,0,0,0,-0.0107,-0.01,-0.0116,-0.0116,-0.0123,-0.0124,-0.0125,-0.0128,-0.0125,-0.0126,-0.0138,-0.014,-0.013,-0.0129,-0.0127,-0.013,-0.0129,-0.0128,-0.0127,-0.0107,-0.0107,-0.0107,0,0,0,0,0,0,-0.0107,-0.0109,-0.0116,-0.0111,-0.0112,-0.0123,-0.0126,-0.0128,-0.0126,-0.013,-0.0131,-0.0136,-0.0131,-0.0129,-0.0124,-0.0129,-0.0128,-0.0126,-0.0107,-0.0107,-0.0107,-0.0108,0,0,0,0,0,0,-0.0106,-0.0108,-0.0106,-0.0111,-0.0112,-0.0109,-0.0125,-0.0127,-0.0128,-0.013,-0.0128,-0.0129,-0.0132,-0.0125,-0.0122,-0.0127,-0.0125,-0.0106,-0.0107,-0.0107,-0.0108,-0.0108,-0.0109,0,0,0,0,0,-0.0105,-0.0095,-0.0106,-0.0108,-0.0111,-0.0109,-0.0107,-0.0118,-0.0127,-0.0121,-0.0127,-0.0129,-0.0126,-0.0124,-0.012,-0.0125,-0.0106,-0.0107,-0.0107,-0.0107,-0.0108,-0.0109,0,0,0,0,0,0,-0.0074,-0.0096,-0.0108,-0.0103,-0.0109,-0.0113,-0.0106,-0.0115,-0.0112,-0.0115,-0.0121,-0.0122,-0.0124,-0.0119,-0.0117,-0.0122,-0.012,-0.012,-0.0122,-0.0122,-0.0123,-0.0083,-0.0124,0,0,0,0,0,-0.0069,-0.0074,-0.009,-0.0084,-0.0088,-0.0096,-0.0095,-0.0103,-0.0106,-0.0106,-0.0111,-0.0115,-0.012,-0.0118,-0.0119,-0.0107,-0.0049,-0.0111,-0.0112,-0.0112,-0.0079,0.0014,0.0026,-0.0109,-0.0109,-0.0109,0,0,-0.0055,-0.0068,-0.0069,-0.0079,-0.0083,-0.0082,-0.0097,-0.0094,-0.0096,-0.0104,-0.0103,-0.0114,-0.0118,-0.0119,-0.0119,-0.0116,-0.0049,-0.0113,-0.0113,-0.0078,0.0015,0.0029,0.0041,-0.0109,-0.0109,-0.0109,0,0,-0.0028,-0.0041,-0.0037,-0.0043,-0.0055,-0.0063,-0.0064,-0.0074,-0.0081,-0.0078,-0.0097,-0.0106,-0.0104,-0.0113,-0.0116,-0.0113,-0.0057,-0.0123,-0.0087,0.0001,0.0015,0.0027,0.0103,0.0122,-0.012,-0.012,-0.012,0,-0.0009,-0.001,-0.0032,-0.003,-0.0033,-0.0057,-0.0049,-0.0056,-0.0064,-0.0051,-0.0079,-0.0062,-0.0099,-0.0073,-0.0099,-0.0113,-0.0043,-0.0087,0.0005,0.0019,0.0031,0.0107,0.0128,-0.012,-0.012,-0.012,-0.012,0,0.0015,0.0015,0.0021,0.0006,0.0002,0.0008,-0.0015,-0.0014,-0.0029,-0.0025,-0.0004,-0.0035,-0.0004,-0.0052,-0.0084,-0.0023,0.0003,-0.0007,0.0014,0.0046,0.0121,0.0144,-0.012,-0.012,-0.012,-0.012,0,0,0.0066,0.004,0.0043,0.005,0.0021,0.0031,0.0022,0.0032,0.0092,0.0047,0.0139,0.0047,0.0069,0.0068,0.0036,0.0067,0.0161,0.0067,0.0071,0.0157,0.038,0.0312,0.033,0.0189,0.0193,0.0196,0.0392,0,0.0096,0.0105,0.0077,0.01,0.0111,0.0082,0.0103,0.0109,0.0133,0.0221,0.0182,0.0259,0.0108,0.0164,0.0158,0.0204,0.0225,0.011,0.0326,0.0333,0.0281,0.0355,0.0302,0.0467,0.0414,0.0418,0.0421,0,0.0146,0.0139,0.0162,0.0175,0.0182,0.0199,0.0264,0.0279,0.0364,0.0407,0.0454,0.0477,0.0514,0.0404,0.0467,0.042,0.0393,0.0387,0.0395,0.0358,0.0307,0.0429,0.051,0.0303,0.0456,0.0453,0.045,0,0.023,0.0214,0.0237,0.0236,0.0243,0.027,0.0283,0.0352,0.0448,0.0578,0.072,0.0732,0.0843,0.0798,0.0717,0.0648,0.0813,0.0729,0.0629,0.0624,0.0635,0.0624,0.0558,0.0772,0.0771,0.0771,0.077,0,0.0308,0.0343,0.0288,0.0317,0.0406,0.0361,0.0512,0.0546,0.0691,0.0878,0.0855,0.1039,0.0959,0.1016,0.0873,0.0841,0.0942,0.0675,0.0686,0.0626,0.0612,0.0474,0.0343,0.0778,0.0776,0.0775,0.0774,0,0.0487,0.0415,0.0478,0.0462,0.0469,0.056,0.0678,0.0815,0.091,0.1177,0.1253,0.1367,0.142,0.129,0.1277,0.1098,0.0919,0.097,0.0886,0.088,0.0547,0.0418,0.0489,0.0355,0.0935,0.0935,0.0934,0,0.062,0.0652,0.0636,0.0681,0.07,0.0796,0.0898,0.0959,0.1119,0.1377,0.1546,0.1669,0.1764,0.1692,0.1398,0.1187,0.095,0.0997,0.0803,0.0554,0.0421,0.0386,0.0263,0.0826,0.0825,0.0824,0.0824,0,0.0894,0.0862,0.0889,0.0951,0.1035,0.1145,0.1268,0.1413,0.1528,0.1727,0.1968,0.2057,0.1966,0.1742,0.1425,0.1239,0.0828,0.0968,0.0767,0.0381,0.0295,0.0162,0.0655,0.0816,0.0816,0.0817,0.0818,0.0818,0.1128,0.1192,0.1164,0.1245,0.1329,0.1443,0.1551,0.1687,0.19,0.2136,0.2219,0.2353,0.2041,0.1589,0.1289,0.0729,0.0748,0.0538,0.0426,0.0436,0.0219,0.0668,0.0782,0.0783,0.0783,0.0784,0.0784,0,0.1361,0.1349,0.1448,0.1483,0.1592,0.1581,0.1764,0.1862,0.2063,0.2289,0.2432,0.2383,0.1892,0.1411,0.0667,0.0266,0.0123,0.0062,-0.0018,-0.0108,0.036,0.0255,0.0192,0.0192,0.0192,0.0192,0.0193,0.0193,0.1457,0.153,0.1525,0.1675,0.1718,0.1852,0.1939,0.2082,0.2238,0.246,0.2563,0.2641,0.2328,0.1018,0.0076,-0.0175,-0.0496,-0.05,-0.0655,-0.0395,-0.036,-0.0327,-0.0457,-0.0669,-0.067,-0.1085,-0.1089,-0.1093]}],[{"header":{"parameterUnit":"m.s-1","parameterCategory":2,"la1":30.2991,"la2":30.254,"lo1":-89.0895,"lo2":-89.0444,"dy":0.0017,"dx":0.0017,"nx":28,"ny":28,"refTime":"2024-02-16T03:00:00:Z","depth":"2","parameterNumber":2,"parameterNumberName":"U-component_of_CURRENTS"},"data":[0,0,0,0,0,0,0,0,0,0,0,0,0,0,0,0,0,0,0,0,0,0,0,0,0,0,0,0,0,0,0,0,0,0,0,0,0,0,0,0,0,0,0,0,0,0,0,0,0,0,0,0,0,0,0,0,0,0,0.1275,0.1276,0,0.1321,0.1321,0.1322,0.1335,0.1334,0.1334,0.1334,0.1416,0.1418,0.142,0,0,0,0,0,0,0,0,0,0,0,0,0,0.1237,0.1237,0.1275,0.1276,0.1276,0.1321,0.1321,0.1322,0.1335,0.1334,0.1334,0.1334,0.1415,0.1418,0.142,0,0,0,0,0,0,0,0,0,0,0,0,0,0.1264,0.1237,0.1275,0.1289,0.1291,0.1321,0.1321,0.1322,0.1335,0.1334,0.1334,0.1334,0.1414,0.1417,0.1421,0.1446,0,0,0.1431,0.1433,0,0,0,0,0,0,0,0,0.1262,0.1265,0.1286,0.1288,0.129,0.1323,0.1338,0.1366,0.1335,0.1317,0.1334,0.1334,0.1389,0.1394,0.1401,0.145,0.1454,0.1432,0.1434,0.1435,0.1436,0,0,0,0,0,0,0,0.126,0.1263,0.1292,0.1287,0.1289,0.1306,0.1309,0.1343,0.1353,0.1318,0.132,0.1327,0.139,0.1398,0.1403,0.1455,0.1432,0.1435,0.1437,0.1438,0.1558,0.1559,0,0,0,0,0,0,0.1255,0.1261,0.1291,0.1293,0.1277,0.1307,0.131,0.1312,0.1352,0.1358,0.1327,0.1327,0.1392,0.1399,0.1406,0.1464,0.1435,0.1438,0.144,0.1557,0.1558,0.1559,0,0,0,0,0,0,0.1254,0.1257,0.1289,0.128,0.1285,0.1308,0.1309,0.1313,0.1326,0.1358,0.1365,0.1337,0.1392,0.1402,0.1445,0.1467,0.144,0.1443,0.1555,0.1557,0.1558,0.1564,0,0,0,0,0,0,0.1253,0.1256,0.1258,0.1279,0.1285,0.1307,0.131,0.1314,0.1331,0.1332,0.137,0.1376,0.1393,0.144,0.1449,0.1471,0.1446,0.1554,0.1556,0.1558,0.1563,0.1566,0.1569,0,0,0,0,0,0.1251,0.1254,0.1257,0.1261,0.1285,0.1308,0.1312,0.1327,0.1331,0.1338,0.1368,0.1375,0.1459,0.1444,0.1454,0.1477,0.1553,0.1555,0.1558,0.1561,0.1565,0.1569,0,0,0,0,0,0,0.1235,0.1256,0.126,0.1268,0.1287,0.131,0.1323,0.1331,0.1359,0.1367,0.1391,0.1401,0.144,0.1463,0.1445,0.1518,0.1507,0.1512,0.1506,0.151,0.1513,0.1537,0.1449,0,0,0,0,0,0.1233,0.1242,0.1262,0.1269,0.1281,0.1303,0.1315,0.1327,0.1354,0.1365,0.1391,0.1426,0.1458,0.1487,0.151,0.1561,0.1593,0.1583,0.1586,0.1588,0.1615,0.1666,0.1676,0.1567,0.1567,0.1567,0,0,0.1228,0.1242,0.1247,0.1267,0.1286,0.1307,0.131,0.1334,0.1356,0.1373,0.1412,0.143,0.1469,0.1514,0.1536,0.154,0.1636,0.1591,0.1593,0.1619,0.1669,0.168,0.1689,0.1569,0.1569,0.1568,0,0,0.1231,0.1239,0.1252,0.1269,0.1299,0.1315,0.1322,0.1351,0.1369,0.1409,0.1422,0.1466,0.151,0.1551,0.1575,0.1617,0.1637,0.1614,0.1667,0.1715,0.1724,0.1733,0.1787,0.18,0.1631,0.1631,0.1631,0,0.1226,0.1245,0.1259,0.1279,0.1302,0.1319,0.1345,0.1364,0.1402,0.1439,0.1423,0.151,0.1536,0.1611,0.1625,0.1627,0.1653,0.1645,0.1719,0.1728,0.1737,0.179,0.1805,0.1631,0.1631,0.1631,0.1631,0,0.1242,0.126,0.1273,0.1304,0.1326,0.1352,0.1383,0.1417,0.144,0.1468,0.1534,0.1563,0.1628,0.1632,0.1646,0.1724,0.1722,0.17,0.1707,0.1748,0.1801,0.1817,0.1632,0.1632,0.1632,0.1632,0,0,0.1226,0.1275,0.128,0.131,0.1347,0.1374,0.142,0.1482,0.1533,0.156,0.1629,0.168,0.1701,0.1732,0.1744,0.1793,0.1874,0.1781,0.1783,0.1832,0.1987,0.1921,0.1932,0.1855,0.1858,0.186,0.1998,0,0.1239,0.1282,0.1305,0.1358,0.1388,0.1432,0.1477,0.1535,0.158,0.1647,0.1694,0.1751,0.1734,0.177,0.1814,0.1865,0.1916,0.184,0.1944,0.1949,0.1882,0.1948,0.1775,0.1878,0.2014,0.2016,0.2018,0,0.1249,0.1282,0.133,0.1409,0.1429,0.1465,0.1567,0.1609,0.1701,0.1739,0.1804,0.1831,0.1929,0.1881,0.2006,0.1955,0.1982,0.2005,0.201,0.1964,0.1912,0.1861,0.1901,0.2044,0.2042,0.204,0.2038,0,0.1241,0.1306,0.135,0.1372,0.1452,0.1505,0.1558,0.1647,0.1706,0.1803,0.1861,0.1943,0.2011,0.2054,0.211,0.2069,0.2227,0.2175,0.214,0.2136,0.2022,0.2002,0.2253,0.2253,0.2253,0.2252,0.2252,0,0.1249,0.1285,0.1356,0.1383,0.1465,0.1516,0.1609,0.1677,0.1769,0.1848,0.1908,0.1985,0.2057,0.2144,0.216,0.2215,0.2275,0.218,0.2176,0.2017,0.1997,0.216,0.2148,0.2258,0.2257,0.2256,0.2255,0,0.1232,0.1268,0.1336,0.1431,0.1462,0.1527,0.1638,0.1704,0.1791,0.1895,0.1933,0.2063,0.2182,0.2239,0.2338,0.2295,0.2339,0.2331,0.2144,0.2115,0.2205,0.2191,0.2325,0.2324,0.2323,0.2322,0.2322,0,0.1236,0.1269,0.1364,0.1411,0.1458,0.1546,0.1606,0.1705,0.1771,0.1936,0.1992,0.2143,0.2214,0.2342,0.2318,0.2344,0.2375,0.2181,0.2063,0.2234,0.2217,0.2204,0.2192,0.1923,0.1919,0.1916,0.1914,0,0.1261,0.1289,0.1331,0.1403,0.1479,0.1559,0.1652,0.1699,0.1814,0.1908,0.2035,0.2103,0.2219,0.2174,0.2198,0.2176,0.2159,0.2116,0.2376,0.1914,0.1861,0.1842,0.1842,0.1886,0.1889,0.1891,0.1892,0.1893,0.127,0.1297,0.133,0.1397,0.1476,0.1536,0.1568,0.1659,0.174,0.1798,0.1939,0.1961,0.2004,0.1942,0.1918,0.1902,0.2028,0.1924,0.1932,0.1943,0.1854,0.18,0.1799,0.1801,0.1803,0.1805,0.1806,0,0.1249,0.1263,0.1326,0.137,0.1404,0.1479,0.1564,0.1555,0.16,0.1668,0.1715,0.1581,0.1575,0.1644,0.1572,0.1572,0.1532,0.152,0.1457,0.1487,0.1513,0.1398,0.1225,0.1223,0.1221,0.1219,0,0,0.1224,0.1224,0.1238,0.1258,0.1308,0.1326,0.1356,0.1366,0.14,0.134,0.1326,0.1399,0.155,0.1329,0.1336,0.1279,0.1361,0.1228,0.1698,0.1651,0.1674,0.1755,0.1614,0,0,0,0,0]},{"header":{"parameterUnit":"m.s-1","parameterCategory":2,"la1":30.2991,"la2":30.254,"lo1":-89.0895,"lo2":-89.0444,"dy":0.0017,"dx":0.0017,"nx":28,"ny":28,"refTime":"2024-02-16T03:00:00:Z","depth":"2","parameterNumber":3,"parameterNumberName":"V-component_of_CURRENTS"},"data":[0,0,0,0,0,0,0,0,0,0,0,0,0,0,0,0,0,0,0,0,0,0,0,0,0,0,0,0,0,0,0,0,0,0,0,0,0,0,0,0,0,0,0,0,0,0,0,0,0,0,0,0,0,0,0,0,0,0,-0.0215,-0.0215,0,-0.0266,-0.0267,-0.0267,-0.0296,-0.0296,-0.0296,-0.0297,-0.0384,-0.0386,-0.0389,0,0,0,0,0,0,0,0,0,0,0,0,0,-0.016,-0.0161,-0.0215,-0.0215,-0.0216,-0.0266,-0.0267,-0.0268,-0.0296,-0.0296,-0.0296,-0.0297,-0.0384,-0.0386,-0.0389,0,0,0,0,0,0,0,0,0,0,0,0,0,-0.0195,-0.0161,-0.0214,-0.0236,-0.0238,-0.0266,-0.0267,-0.0268,-0.0296,-0.0296,-0.0296,-0.0297,-0.0383,-0.0386,-0.0389,-0.0408,0,0,-0.04,-0.0401,0,0,0,0,0,0,0,0,-0.0193,-0.0197,-0.0232,-0.0235,-0.0237,-0.0275,-0.028,-0.0316,-0.0296,-0.0275,-0.0297,-0.0297,-0.0351,-0.0357,-0.0366,-0.0412,-0.0416,-0.04,-0.0402,-0.0404,-0.0405,0,0,0,0,0,0,0,-0.0191,-0.0195,-0.0235,-0.0233,-0.0236,-0.025,-0.0255,-0.0287,-0.0312,-0.0277,-0.0279,-0.0284,-0.0352,-0.0363,-0.0368,-0.0417,-0.04,-0.0403,-0.0405,-0.0406,-0.0467,-0.0467,0,0,0,0,0,0,-0.0183,-0.0193,-0.0234,-0.0237,-0.0215,-0.025,-0.0256,-0.0263,-0.0311,-0.0318,-0.0284,-0.0285,-0.0357,-0.0364,-0.0372,-0.0375,-0.0404,-0.0407,-0.0409,-0.0468,-0.0467,-0.0467,0,0,0,0,0,0,-0.0182,-0.0186,-0.0232,-0.0216,-0.0222,-0.0251,-0.0259,-0.0264,-0.0272,-0.0316,-0.0324,-0.0286,-0.0357,-0.0367,-0.0397,-0.0379,-0.0408,-0.0411,-0.0468,-0.0468,-0.0467,-0.0395,0,0,0,0,0,0,-0.018,-0.0185,-0.0187,-0.0215,-0.0223,-0.0238,-0.0259,-0.0265,-0.0275,-0.0277,-0.0321,-0.0329,-0.0358,-0.0392,-0.04,-0.0384,-0.0414,-0.0469,-0.0468,-0.0467,-0.0398,-0.0392,-0.0387,0,0,0,0,0,-0.0178,-0.0177,-0.0187,-0.0191,-0.0224,-0.0237,-0.0242,-0.0263,-0.0274,-0.0272,-0.0306,-0.0328,-0.0392,-0.0394,-0.0405,-0.0389,-0.0469,-0.0468,-0.0467,-0.0401,-0.0393,-0.0387,0,0,0,0,0,0,-0.0153,-0.0181,-0.0192,-0.0199,-0.0213,-0.0242,-0.0244,-0.0259,-0.0283,-0.0289,-0.033,-0.0341,-0.0356,-0.0387,-0.0388,-0.0404,-0.0431,-0.0432,-0.0377,-0.0371,-0.0365,-0.0372,-0.0417,0,0,0,0,0,-0.0149,-0.0156,-0.018,-0.0185,-0.0191,-0.0216,-0.0225,-0.0239,-0.0264,-0.0275,-0.0304,-0.0337,-0.0361,-0.0377,-0.0404,-0.042,-0.046,-0.0415,-0.041,-0.0405,-0.0417,-0.0463,-0.0462,-0.0464,-0.0464,-0.0464,0,0,-0.0141,-0.0156,-0.0161,-0.018,-0.0194,-0.0196,-0.0222,-0.023,-0.023,-0.0282,-0.0292,-0.032,-0.0361,-0.0373,-0.0383,-0.0397,-0.0421,-0.0404,-0.0399,-0.0415,-0.0462,-0.0462,-0.0462,-0.0463,-0.0463,-0.0463,0,0,-0.0124,-0.0141,-0.0139,-0.0147,-0.0164,-0.0179,-0.0178,-0.0202,-0.0211,-0.0226,-0.0258,-0.0281,-0.0318,-0.0342,-0.036,-0.0345,-0.0389,-0.0344,-0.0325,-0.0367,-0.0368,-0.0369,-0.0399,-0.0403,-0.0343,-0.0342,-0.0342,0,-0.0112,-0.0117,-0.0139,-0.0136,-0.014,-0.0167,-0.0161,-0.0173,-0.0201,-0.0215,-0.022,-0.0278,-0.0304,-0.033,-0.0318,-0.0332,-0.0363,-0.0343,-0.036,-0.0362,-0.0364,-0.0396,-0.0401,-0.0339,-0.0339,-0.034,-0.034,0,-0.0094,-0.0096,-0.0093,-0.01,-0.0104,-0.0104,-0.0121,-0.0129,-0.0144,-0.0164,-0.019,-0.0227,-0.0266,-0.0264,-0.0287,-0.031,-0.0327,-0.0345,-0.0375,-0.036,-0.0394,-0.0401,-0.0334,-0.0335,-0.0336,-0.0337,0,0,-0.0075,-0.0079,-0.0078,-0.0076,-0.0086,-0.0089,-0.0088,-0.0105,-0.0114,-0.0137,-0.0149,-0.0185,-0.0213,-0.0236,-0.0262,-0.0295,-0.032,-0.0322,-0.0326,-0.0349,-0.0409,-0.0388,-0.0394,-0.0342,-0.0343,-0.0344,-0.0419,0,-0.0054,-0.0038,-0.0048,-0.0035,-0.0028,-0.0051,-0.0051,-0.007,-0.0089,-0.0105,-0.0147,-0.0165,-0.0198,-0.0207,-0.0248,-0.0296,-0.034,-0.0298,-0.0425,-0.0429,-0.0409,-0.0402,-0.0354,-0.0414,-0.0427,-0.0428,-0.0429,0,-0.0038,-0.0027,-0.0006,-0.0009,-0.001,-0.0007,-0.0022,-0.0025,-0.0059,-0.0074,-0.0109,-0.0137,-0.0176,-0.0204,-0.0306,-0.0277,-0.0347,-0.0392,-0.0396,-0.0413,-0.0421,-0.0437,-0.0428,-0.0442,-0.0441,-0.044,-0.0439,0,-0.002,-0.0005,0.0013,0.0016,0.0013,0.0011,0.0007,-0.002,-0.0019,-0.0049,-0.0044,-0.0116,-0.0122,-0.0226,-0.0311,-0.0312,-0.0426,-0.0439,-0.0496,-0.0495,-0.0499,-0.0496,-0.0541,-0.054,-0.054,-0.054,-0.054,0,-0.0006,-0.0001,0.0024,0.003,0.0041,0.0035,0.0034,0.0016,0.0012,0.002,-0.0023,-0.0023,-0.0128,-0.0195,-0.0304,-0.0411,-0.0428,-0.0499,-0.0517,-0.0469,-0.0463,-0.0529,-0.0527,-0.0543,-0.0542,-0.0542,-0.0541,0,-0.0024,0.0001,0.0015,0.0035,0.0045,0.0048,0.0062,0.0067,0.0063,0.0083,0.0087,0.0053,-0.0028,-0.0148,-0.0297,-0.0376,-0.0499,-0.0547,-0.0473,-0.048,-0.0544,-0.0537,-0.061,-0.061,-0.061,-0.061,-0.061,0,-0.0052,-0.0036,0.0015,0.0037,0.0042,0.0058,0.0075,0.0084,0.0103,0.0127,0.0147,0.01,0.0074,-0.0119,-0.0278,-0.0456,-0.0511,-0.053,-0.0527,-0.0543,-0.0554,-0.0547,-0.054,-0.0501,-0.0501,-0.05,-0.0499,0,-0.0109,-0.0076,-0.0051,0.0015,0.0049,0.0083,0.0117,0.0149,0.0176,0.0216,0.0255,0.0249,0.0103,-0.003,-0.0252,-0.0376,-0.049,-0.0519,-0.0572,-0.048,-0.0444,-0.0453,-0.0449,-0.0492,-0.0493,-0.0494,-0.0494,-0.0494,-0.0157,-0.0141,-0.0074,-0.0019,0.0038,0.0108,0.0147,0.0209,0.027,0.0371,0.0348,0.0384,0.0219,-0.0018,-0.0225,-0.043,-0.0447,-0.0512,-0.0513,-0.0516,-0.0478,-0.0443,-0.0484,-0.0485,-0.0485,-0.0486,-0.0486,0,-0.0201,-0.0155,-0.0112,-0.0023,0.0049,0.0088,0.018,0.0256,0.036,0.0458,0.0525,0.0424,0.0273,0.006,-0.0219,-0.0397,-0.0415,-0.0461,-0.0443,-0.0448,-0.0453,-0.0412,-0.0401,-0.0401,-0.0401,-0.0402,0,0,-0.0215,-0.0171,-0.0131,-0.0025,0.0045,0.0159,0.0227,0.0362,0.0464,0.0585,0.0637,0.0657,0.038,0.02,-0.006,-0.0226,-0.0293,-0.0257,-0.0305,-0.0257,-0.0259,-0.0461,-0.0401,0,0,0,0,0]}],[{"header":{"parameterUnit":"m.s-1","parameterCategory":2,"la1":30.2991,"la2":30.254,"lo1":-89.0895,"lo2":-89.0444,"dy":0.0017,"dx":0.0017,"nx":28,"ny":28,"refTime":"2024-02-16T03:00:00:Z","depth":"4","parameterNumber":2,"parameterNumberName":"U-component_of_CURRENTS"},"data":[0,0,0,0,0,0,0,0,0,0,0,0,0,0,0,0,0,0,0,0,0,0,0,0,0,0,0,0,0,0,0,0,0,0,0,0,0,0,0,0,0,0,0,0,0,0,0,0,0,0,0,0,0,0,0,0,0,0,0.0794,0.0794,0,0.0798,0.0798,0.0798,0.0813,0.0814,0.0814,0.0815,0.0794,0.0793,0.0792,0,0,0,0,0,0,0,0,0,0,0,0,0,0.0757,0.0758,0.0794,0.0794,0.0794,0.0798,0.0798,0.0798,0.0813,0.0814,0.0814,0.0815,0.0795,0.0793,0.0792,0,0,0,0,0,0,0,0,0,0,0,0,0,0.0767,0.0758,0.0794,0.0803,0.0804,0.0798,0.0798,0.0798,0.0813,0.0814,0.0814,0.0815,0.0795,0.0794,0.0792,0.0768,0,0,0.0787,0.0787,0,0,0,0,0,0,0,0,0.0766,0.0768,0.0802,0.0803,0.0804,0.0807,0.0778,0.0787,0.0813,0.0808,0.0815,0.0815,0.0797,0.0795,0.0792,0.0767,0.0766,0.0787,0.0786,0.0786,0.0785,0,0,0,0,0,0,0,0.0766,0.0768,0.0794,0.0802,0.0803,0.0793,0.0796,0.0779,0.0796,0.0808,0.081,0.0813,0.0797,0.0794,0.0792,0.0766,0.0787,0.0786,0.0785,0.0784,0.0785,0.0786,0,0,0,0,0,0,0.077,0.0767,0.0794,0.0794,0.0788,0.0794,0.0796,0.0804,0.0797,0.0798,0.0812,0.0813,0.0796,0.0794,0.0791,0.0822,0.0786,0.0784,0.0783,0.0784,0.0785,0.0786,0,0,0,0,0,0,0.0769,0.0772,0.0793,0.0782,0.0784,0.0794,0.0802,0.0804,0.082,0.0801,0.08,0.0829,0.0796,0.0793,0.0798,0.0819,0.0784,0.0782,0.0783,0.0784,0.0786,0.0845,0,0,0,0,0,0,0.0768,0.0772,0.0785,0.0782,0.0785,0.0802,0.0802,0.0803,0.082,0.0822,0.0814,0.0812,0.0797,0.08,0.0797,0.0816,0.0781,0.0782,0.0784,0.0785,0.0842,0.0848,0.0853,0,0,0,0,0,0.0767,0.0777,0.0786,0.079,0.0801,0.0803,0.0804,0.0811,0.082,0.0829,0.0829,0.0814,0.0809,0.08,0.0795,0.0815,0.0781,0.0783,0.0785,0.0839,0.0847,0.0853,0,0,0,0,0,0,0.0767,0.078,0.079,0.0804,0.0811,0.0807,0.0816,0.0822,0.0828,0.0836,0.082,0.0818,0.083,0.0813,0.0804,0.0821,0.0794,0.0795,0.0837,0.0844,0.0849,0.0861,0.078,0,0,0,0,0,0.0774,0.0789,0.0796,0.081,0.0815,0.082,0.0825,0.0832,0.0834,0.0839,0.0837,0.0834,0.083,0.0831,0.0823,0.0827,0.0819,0.0839,0.0845,0.085,0.0856,0.0871,0.0879,0.0793,0.0793,0.0793,0,0,0.0777,0.0787,0.0796,0.0811,0.0817,0.0823,0.0825,0.0839,0.0849,0.0833,0.0852,0.0852,0.0836,0.0847,0.0851,0.0838,0.0869,0.0852,0.0857,0.0861,0.0874,0.0883,0.089,0.0794,0.0794,0.0794,0,0,0.0784,0.0802,0.0815,0.0822,0.0838,0.0838,0.0848,0.0858,0.0871,0.0885,0.0881,0.0892,0.0889,0.0883,0.0878,0.0908,0.0898,0.0917,0.0956,0.0971,0.0978,0.0985,0.0979,0.0984,0.0921,0.0921,0.0921,0,0.0788,0.0805,0.0818,0.0828,0.0835,0.0848,0.0857,0.0867,0.088,0.0893,0.09,0.0918,0.0901,0.0915,0.0934,0.092,0.0931,0.0931,0.098,0.0986,0.0991,0.0984,0.0989,0.0924,0.0924,0.0924,0.0923,0,0.0797,0.0815,0.0821,0.084,0.085,0.086,0.0874,0.0893,0.0914,0.0926,0.096,0.0955,0.0964,0.097,0.0963,0.1001,0.0996,0.0985,0.0963,0.1004,0.0993,0.0997,0.0929,0.0928,0.0927,0.0926,0,0,0.0788,0.0822,0.0825,0.0838,0.0858,0.0864,0.0887,0.0909,0.0925,0.0962,0.099,0.1006,0.1023,0.1019,0.102,0.1046,0.1087,0.1049,0.1049,0.1046,0.1127,0.1093,0.1094,0.1104,0.1105,0.1106,0.1101,0,0.079,0.0811,0.0829,0.0848,0.0857,0.0879,0.0894,0.0919,0.0943,0.0973,0.1003,0.1033,0.1035,0.1059,0.1081,0.1103,0.1105,0.109,0.1085,0.1085,0.1053,0.11,0.111,0.1104,0.1105,0.1106,0.1106,0,0.0786,0.0802,0.0822,0.0852,0.0859,0.0875,0.0905,0.0922,0.0963,0.0994,0.1039,0.1063,0.1121,0.1107,0.1159,0.1164,0.1143,0.1149,0.1148,0.1101,0.1061,0.1056,0.1114,0.1113,0.1113,0.1112,0.1112,0,0.0761,0.0795,0.0813,0.0822,0.0855,0.0876,0.0899,0.0932,0.0969,0.1022,0.1076,0.1115,0.1169,0.1179,0.1206,0.1195,0.1255,0.1219,0.1151,0.1147,0.115,0.1144,0.1212,0.1212,0.1212,0.1212,0.1212,0,0.0743,0.0757,0.0807,0.0812,0.083,0.0869,0.089,0.0924,0.0997,0.1035,0.1097,0.1142,0.1202,0.1244,0.1227,0.1229,0.1263,0.1169,0.1154,0.1173,0.1169,0.1153,0.1146,0.1212,0.1212,0.1212,0.1212,0,0.0699,0.0737,0.075,0.0797,0.0815,0.0826,0.09,0.0912,0.1014,0.1073,0.1116,0.121,0.1263,0.1298,0.131,0.1265,0.1255,0.122,0.1249,0.1233,0.112,0.1117,0.1143,0.1142,0.1141,0.114,0.114,0,0.0671,0.0676,0.0722,0.0723,0.0745,0.0777,0.0787,0.0895,0.0923,0.109,0.1113,0.1228,0.1258,0.1262,0.129,0.1268,0.1233,0.1213,0.1157,0.1136,0.1118,0.1116,0.1113,0.1138,0.1138,0.1138,0.1138,0,0.0592,0.0617,0.0626,0.0641,0.0658,0.0682,0.0728,0.0763,0.088,0.1005,0.1087,0.1139,0.1189,0.1205,0.1219,0.1186,0.1237,0.1203,0.1203,0.1149,0.1131,0.1113,0.1112,0.1135,0.1135,0.1135,0.1136,0,0.0524,0.0507,0.0524,0.0537,0.0564,0.0582,0.0615,0.0668,0.0744,0.0944,0.0948,0.1066,0.1153,0.1161,0.1166,0.1166,0.1122,0.1063,0.1069,0.1072,0.1059,0.1025,0.0995,0,0,0,0,0,0.0441,0.0419,0.0412,0.0431,0.0471,0.0502,0.0569,0.0613,0.0738,0.0766,0.0874,0.0911,0.0981,0.1034,0.1014,0.1114,0.1111,0.1087,0.104,0.1119,0.1122,0.1116,0,0,0,0,0,0,0.0379,0.0366,0.0372,0.0354,0.0364,0.0407,0.0451,0.0537,0.0559,0.0694,0.0723,0.0854,0.0911,0.0981,0.0997,0.1014,0.0964,0.1165,0.1162,0.1117,0.112,0.1122,0.1118,0,0,0,0,0]},{"header":{"parameterUnit":"m.s-1","parameterCategory":2,"la1":30.2991,"la2":30.254,"lo1":-89.0895,"lo2":-89.0444,"dy":0.0017,"dx":0.0017,"nx":28,"ny":28,"refTime":"2024-02-16T03:00:00:Z","depth":"4","parameterNumber":3,"parameterNumberName":"V-component_of_CURRENTS"},"data":[0,0,0,0,0,0,0,0,0,0,0,0,0,0,0,0,0,0,0,0,0,0,0,0,0,0,0,0,0,0,0,0,0,0,0,0,0,0,0,0,0,0,0,0,0,0,0,0,0,0,0,0,0,0,0,0,0,0,-0.0113,-0.0113,0,-0.0138,-0.0138,-0.0139,-0.0154,-0.0154,-0.0154,-0.0154,-0.0172,-0.0172,-0.0173,0,0,0,0,0,0,0,0,0,0,0,0,0,-0.0065,-0.0066,-0.0113,-0.0113,-0.0114,-0.0138,-0.0138,-0.0139,-0.0154,-0.0154,-0.0154,-0.0155,-0.0172,-0.0172,-0.0173,0,0,0,0,0,0,0,0,0,0,0,0,0,-0.0087,-0.0066,-0.0113,-0.0125,-0.0127,-0.0138,-0.0138,-0.0139,-0.0154,-0.0154,-0.0154,-0.0155,-0.0172,-0.0172,-0.0173,-0.017,0,0,-0.0174,-0.0174,0,0,0,0,0,0,0,0,-0.0086,-0.0089,-0.0123,-0.0124,-0.0126,-0.0144,-0.0128,-0.0149,-0.0154,-0.0142,-0.0154,-0.0155,-0.0163,-0.0164,-0.0167,-0.0171,-0.0172,-0.0174,-0.0175,-0.0175,-0.0175,0,0,0,0,0,0,0,-0.0084,-0.0087,-0.0122,-0.0123,-0.0125,-0.0125,-0.0128,-0.0132,-0.015,-0.0143,-0.0145,-0.0149,-0.0163,-0.0166,-0.0167,-0.0172,-0.0174,-0.0175,-0.0175,-0.0175,-0.0176,-0.0176,0,0,0,0,0,0,-0.0084,-0.0086,-0.0121,-0.0123,-0.0107,-0.0126,-0.0129,-0.0137,-0.015,-0.0153,-0.0149,-0.015,-0.0165,-0.0167,-0.0168,-0.0159,-0.0175,-0.0175,-0.0175,-0.0177,-0.0176,-0.0176,0,0,0,0,0,0,-0.0083,-0.0087,-0.012,-0.0106,-0.011,-0.0127,-0.0135,-0.0138,-0.0143,-0.0154,-0.0157,-0.0153,-0.0165,-0.0167,-0.0171,-0.016,-0.0175,-0.0176,-0.0177,-0.0177,-0.0176,-0.0145,0,0,0,0,0,0,-0.0081,-0.0086,-0.0091,-0.0106,-0.0111,-0.0124,-0.0135,-0.0138,-0.0146,-0.0147,-0.0158,-0.016,-0.0166,-0.017,-0.0171,-0.0161,-0.0176,-0.0177,-0.0177,-0.0176,-0.0146,-0.0143,-0.0141,0,0,0,0,0,-0.0079,-0.0083,-0.0091,-0.0095,-0.0117,-0.0124,-0.0126,-0.0138,-0.0146,-0.0145,-0.0154,-0.016,-0.0168,-0.017,-0.0172,-0.0161,-0.0177,-0.0177,-0.0176,-0.0147,-0.0144,-0.0141,0,0,0,0,0,0,-0.0067,-0.0086,-0.0095,-0.0105,-0.0113,-0.0127,-0.0128,-0.0138,-0.0144,-0.0146,-0.0158,-0.016,-0.0159,-0.0166,-0.0168,-0.0161,-0.0173,-0.0173,-0.015,-0.0147,-0.0145,-0.013,-0.0177,0,0,0,0,0,-0.0067,-0.0073,-0.009,-0.0097,-0.0101,-0.0115,-0.012,-0.0127,-0.0136,-0.014,-0.0148,-0.0155,-0.0157,-0.0158,-0.0163,-0.0158,-0.0178,-0.0152,-0.015,-0.0148,-0.0137,-0.0168,-0.0167,-0.0174,-0.0174,-0.0174,0,0,-0.0065,-0.0075,-0.008,-0.0095,-0.0102,-0.0098,-0.0118,-0.0123,-0.0116,-0.014,-0.0134,-0.0148,-0.0156,-0.015,-0.015,-0.0154,-0.0157,-0.0147,-0.0145,-0.0135,-0.0167,-0.0166,-0.0166,-0.0174,-0.0174,-0.0174,0,0,-0.0056,-0.0072,-0.0071,-0.0073,-0.0083,-0.0089,-0.009,-0.0103,-0.0105,-0.0104,-0.0118,-0.0122,-0.013,-0.0128,-0.0129,-0.0115,-0.0146,-0.0123,-0.0093,-0.0124,-0.0123,-0.0123,-0.0154,-0.0157,-0.0118,-0.0118,-0.0118,0,-0.0052,-0.0053,-0.007,-0.0065,-0.0061,-0.0082,-0.0071,-0.0074,-0.0085,-0.008,-0.0096,-0.0105,-0.0113,-0.0101,-0.0097,-0.0107,-0.0137,-0.0104,-0.012,-0.012,-0.0121,-0.0153,-0.0156,-0.0116,-0.0117,-0.0117,-0.0117,0,-0.0037,-0.0036,-0.0034,-0.0031,-0.0029,-0.0024,-0.0029,-0.0024,-0.0033,-0.0038,-0.0036,-0.0055,-0.0058,-0.0064,-0.0075,-0.0077,-0.0102,-0.0117,-0.0127,-0.0118,-0.0152,-0.0157,-0.0114,-0.0115,-0.0115,-0.0116,0,0,-0.0032,-0.0024,-0.0023,-0.0009,-0.0009,-0.0003,0.0015,0.0026,0.0041,0.0023,0.0034,0.0026,0.0004,0.0001,-0.002,-0.0043,-0.0074,-0.008,-0.0083,-0.0109,-0.0152,-0.0144,-0.0148,-0.0103,-0.0104,-0.0104,-0.0177,0,-0.0013,0.0009,0.0008,0.0038,0.0051,0.0051,0.0075,0.0084,0.0078,0.0082,0.0061,0.0055,0.0032,0.002,-0.0002,-0.0068,-0.0083,-0.0053,-0.0157,-0.016,-0.0153,-0.0152,-0.0105,-0.018,-0.0181,-0.0182,-0.0182,0,0.0001,0.0018,0.0048,0.0083,0.0091,0.0108,0.0143,0.0159,0.0162,0.0154,0.014,0.0108,0.0076,0.005,-0.0039,-0.0028,-0.0075,-0.0122,-0.0126,-0.0129,-0.0159,-0.019,-0.019,-0.019,-0.0189,-0.0189,-0.0188,0,0.0014,0.0047,0.0074,0.0085,0.0119,0.0143,0.0165,0.0182,0.02,0.0188,0.0179,0.0138,0.01,0.0031,-0.0064,-0.0063,-0.0172,-0.0181,-0.0209,-0.021,-0.021,-0.0209,-0.0219,-0.0219,-0.0219,-0.0219,-0.0218,0,0.0028,0.0048,0.0086,0.01,0.0151,0.0168,0.0215,0.0226,0.0239,0.0258,0.021,0.0199,0.0089,0.0014,-0.0062,-0.0158,-0.0172,-0.0199,-0.0224,-0.0196,-0.0193,-0.0214,-0.0212,-0.0221,-0.0221,-0.022,-0.022,0,0.0017,0.0041,0.0077,0.0129,0.0152,0.0185,0.0244,0.0279,0.0276,0.0291,0.0281,0.0221,0.0124,0.0019,-0.0105,-0.0156,-0.0247,-0.0266,-0.0232,-0.0256,-0.0264,-0.0259,-0.0306,-0.0306,-0.0306,-0.0306,-0.0307,0,0.0003,0.0022,0.0092,0.013,0.0151,0.021,0.0262,0.0292,0.0322,0.031,0.0316,0.0231,0.0183,0.0009,-0.01,-0.0246,-0.025,-0.0303,-0.0267,-0.0251,-0.0271,-0.0267,-0.0262,-0.0307,-0.0307,-0.0307,-0.0307,0,-0.0013,0.0016,0.006,0.0147,0.0206,0.0264,0.033,0.035,0.0386,0.0371,0.0346,0.0263,0.0162,0.0029,-0.009,-0.0187,-0.0281,-0.0305,-0.0304,-0.0271,-0.0253,-0.0272,-0.0267,-0.0308,-0.0308,-0.0308,-0.0308,0,-0.0016,0.0024,0.011,0.018,0.0249,0.0314,0.034,0.0388,0.0417,0.0401,0.0391,0.0283,0.0214,0.0061,-0.0048,-0.0152,-0.0162,-0.0188,-0.0194,-0.0195,-0.0138,-0.0097,-0.0121,0,0,0,0,0,0.0001,0.008,0.0146,0.0243,0.0296,0.034,0.0398,0.0419,0.044,0.0433,0.0416,0.0331,0.0175,0.0101,0.0003,-0.0049,-0.0186,-0.0168,-0.022,-0.0312,-0.0311,-0.0262,0,0,0,0,0,0,0.004,0.012,0.0169,0.0276,0.0331,0.041,0.0441,0.0447,0.0446,0.0436,0.0355,0.0309,0.0155,0.023,0.0001,-0.0032,-0.0077,-0.0245,-0.0247,-0.0312,-0.0312,-0.0311,-0.026,0,0,0,0,0]}]]